Weather History for KBTV - May, 2013

Change the Weather History Date:

Thursday, May 30, 2013

  Actual Average Record
Temperature  
Mean Temperature 76 °F 61 °F  
Max Temperature 88 °F 72 °F 92 °F (1929)
Min Temperature 63 °F 50 °F 28 °F (1961)
Degree Days  
Heating Degree Days 0 5  
Month to date heating degree days 171 281  
Since 1 July heating degree days 6638 7355  
Cooling Degree Days 11 1  
Month to date cooling degree days 35 13  
Year to date cooling degree days 35 15  
Growing Degree Days 26 (Base 50)    
Moisture  
Dew Point 62 °F    
Average Humidity 66    
Maximum Humidity 93    
Minimum Humidity 39    
Precipitation  
Precipitation 0.00 in 0.13 in 1.60 in (1916)
Month to date precipitation 8.74 3.33  
Year to date precipitation 15.27 12.19  
Snow  
Snow 0.00 in 0.00 in 0.00 in (2002)
Month to date snowfall 0.0 0.0  
Since 1 July snowfall 82.9 81.2  
Snow Depth 0.00 in    
Sea Level Pressure  
Sea Level Pressure 30.02 in    
Wind  
Wind Speed 5 mph (SW)    
Max Wind Speed 12 mph    
Max Gust Speed 16 mph    
Visibility 10 miles    
Events      
T = Trace of Precipitation, MM = Missing Value Source: NWS Daily Summary

Daily Weather History Graph

Daily Weather History Graph

Search for Another Location

Airport or City:

Trip Planner

Search our weather history database for the weather conditions in past years. The results will help you decide how hot, cold, wet, or windy it might be!

Date:

Astronomy

May. 30, 2013 Rise Set
Actual Time 5:12 AM EDT 8:28 PM EDT
Civil Twilight 4:36 AM EDT 9:04 PM EDT
Nautical Twilight 3:50 AM EDT 9:50 PM EDT
Astronomical Twilight 2:53 AM EDT 10:48 PM EDT
Moon 12:19 AM EDT (5/30) 11:26 AM EDT (5/30)
Length of Visible Light 16h 27m
Length of Day
15h 16m
Waning Gibbous, 62% of the Moon is Illuminated
May 30
Waning Gibbous
May 31
Last Quarter
Jun 8
New
Jun 16
First Quarter
Jun 23
Full

Hourly Weather History & Observations

Time (EDT) Temp. Heat Index Dew Point Humidity Pressure Visibility Wind Dir Wind Speed Gust Speed Precip Events Conditions
12:54 AM 66.0 °F - 63.0 °F 90% 29.97 in 10.0 mi SSW 5.8 mph - N/A   Clear
1:54 AM 66.0 °F - 63.0 °F 90% 29.99 in 10.0 mi SSW 6.9 mph - N/A   Clear
2:54 AM 66.0 °F - 63.0 °F 90% 29.99 in 10.0 mi South 10.4 mph - N/A   Clear
3:54 AM 64.9 °F - 62.1 °F 90% 30.00 in 10.0 mi SSW 4.6 mph - N/A   Clear
4:54 AM 64.0 °F - 61.0 °F 90% 30.01 in 10.0 mi South 5.8 mph - N/A   Clear
5:54 AM 63.0 °F - 61.0 °F 93% 30.03 in 10.0 mi South 5.8 mph - N/A   Partly Cloudy
6:54 AM 68.0 °F - 61.0 °F 78% 30.05 in 10.0 mi WSW 3.5 mph - N/A   Partly Cloudy
7:54 AM 69.1 °F - 62.1 °F 78% 30.05 in 10.0 mi SSW 4.6 mph - N/A   Mostly Cloudy
8:54 AM 71.1 °F - 63.0 °F 75% 30.07 in 10.0 mi SSW 5.8 mph - N/A   Mostly Cloudy
9:54 AM 75.0 °F - 62.1 °F 64% 30.06 in 10.0 mi SW 5.8 mph - N/A   Mostly Cloudy
10:54 AM 77.0 °F - 63.0 °F 62% 30.06 in 10.0 mi Variable 4.6 mph - N/A   Partly Cloudy
11:54 AM 80.1 °F 81.5 °F 63.0 °F 56% 30.06 in 10.0 mi Variable 6.9 mph - N/A   Partly Cloudy
12:54 PM 82.0 °F 83.1 °F 63.0 °F 52% 30.04 in 10.0 mi SW 5.8 mph - N/A   Partly Cloudy
1:54 PM 84.0 °F 84.4 °F 61.0 °F 46% 30.03 in 10.0 mi West 8.1 mph - N/A   Partly Cloudy
2:54 PM 86.0 °F 86.1 °F 61.0 °F 43% 30.02 in 10.0 mi West 8.1 mph - N/A   Scattered Clouds
3:54 PM 86.0 °F 85.4 °F 59.0 °F 40% 30.01 in 10.0 mi WNW 8.1 mph - N/A   Partly Cloudy
4:54 PM 87.1 °F 86.5 °F 59.0 °F 39% 30.00 in 10.0 mi NW 5.8 mph - N/A   Partly Cloudy
5:54 PM 88.0 °F 87.6 °F 60.1 °F 39% 30.00 in 10.0 mi NNW 5.8 mph - N/A   Partly Cloudy
6:54 PM 84.9 °F 85.0 °F 61.0 °F 44% 30.00 in 10.0 mi NNW 5.8 mph - N/A   Partly Cloudy
7:54 PM 81.0 °F 82.2 °F 63.0 °F 54% 30.01 in 10.0 mi NE 3.5 mph - N/A   Clear
8:54 PM 78.1 °F - 64.0 °F 62% 30.01 in 10.0 mi Calm Calm - N/A   Clear
9:54 PM 72.0 °F - 64.9 °F 78% 30.03 in 10.0 mi SE 3.5 mph - N/A   Clear
10:54 PM 69.1 °F - 64.9 °F 87% 30.04 in 10.0 mi East 3.5 mph - N/A   Clear
11:54 PM 66.9 °F - 64.0 °F 90% 30.04 in 10.0 mi East 3.5 mph - N/A   Clear